OE6JWD-11 Weather Reports


Display with metric or nautical units.
time (UTC)temp
F
wind
direction
speed
MPH
gust
MPH
rain 1hr
in
rain 24hr
in
rain mn
in
humidity
%
barometer
mb
20210613083003 63 255 2.0 5.0 0.00 0.01 0.01 86 1021.0
20210613082003 64 0 0.0 8.0 0.00 0.01 0.01 85 1020.9
20210613081004 64 221 2.0 8.0 0.00 0.01 0.01 83 1021.0
20210613080003 63 203 2.0 5.0 0.00 0.01 0.01 85 1020.7
20210613075004 62 219 1.0 6.0 0.00 0.01 0.01 87 1020.9
20210613074004 62 228 2.0 4.0 0.00 0.01 0.01 87 1020.7
20210613073003 62 209 2.0 4.0 0.00 0.01 0.01 87 1020.7
20210613072003 61 209 2.0 3.0 0.00 0.01 0.01 87 1020.7
20210613071003 60 204 1.0 6.0 0.00 0.01 0.01 89 1020.6
20210613070003 60 203 2.0 6.0 0.00 0.01 0.01 93 1020.7
20210613065003 60 199 1.0 4.0 0.00 0.01 0.01 92 1020.8
20210613064003 60 0 0.0 2.0 0.00 0.01 0.01 90 1020.6
20210613063004 61 0 0.0 3.0 0.00 0.01 0.01 86 1020.5
20210613062004 61 0 0.0 3.0 0.00 0.01 0.01 88 1020.4
20210613061004 59 0 0.0 2.0 0.00 0.01 0.01 90 1020.3
20210613060004 59 0 0.0 5.0 0.00 0.01 0.01 91 1020.2
20210613055003 59 249 1.0 4.0 0.00 0.01 0.01 91 1020.0
20210613054003 59 0 0.0 2.0 0.00 0.01 0.01 89 1020.1
20210613053004 58 256 1.0 2.0 0.00 0.01 0.01 91 1019.9
20210613052003 58 0 0.0 2.0 0.00 0.01 0.01 90 1020.0
20210613051004 58 0 0.0 3.0 0.00 0.01 0.01 92 1019.8
20210613050004 58 0 0.0 2.0 0.00 0.01 0.01 90 1019.9
20210613045004 58 0 0.0 2.0 0.00 0.01 0.01 88 1020.0
20210613044003 58 0 0.0 2.0 0.00 0.01 0.01 89 1020.0
20210613043003 58 0 0.0 1.0 0.00 0.01 0.01 92 1019.5
20210613042003 58 0 0.0 2.0 0.00 0.01 0.01 89 1019.4
20210613041003 59 0 0.0 3.0 0.00 0.01 0.01 88 1019.2
20210613040003 59 265 1.0 2.0 0.00 0.01 0.01 90 1019.7
20210613035004 59 0 0.0 5.0 0.00 0.01 0.01 88 1019.6
20210613034004 59 0 0.0 0.0 0.00 0.01 0.01 93 1019.4
20210613033004 59 0 0.0 2.0 0.00 0.01 0.01 93 1019.1
20210613032004 59 0 0.0 2.0 0.00 0.01 0.01 92 1019.3
20210613031004 60 0 0.0 2.0 0.00 0.01 0.01 92 1019.1
20210613030004 60 0 0.0 2.0 0.00 0.01 0.01 92 1018.9
20210613025004 60 0 0.0 2.0 0.00 0.01 0.01 92 1019.1
20210613024004 61 0 0.0 4.0 0.00 0.01 0.01 91 1019.2
20210613023004 61 0 0.0 2.0 0.00 0.01 0.01 89 1018.9
20210613022003 61 0 0.0 1.0 0.00 0.01 0.01 89 1018.6
20210613021003 61 0 0.0 4.0 0.00 0.01 0.01 88 1018.5
20210613020003 61 297 1.0 5.0 0.00 0.01 0.01 88 1018.2
20210613015003 62 0 0.0 3.0 0.00 0.01 0.01 88 1018.4
20210613014003 62 0 0.0 5.0 0.00 0.01 0.01 87 1018.1
20210613013004 62 317 2.0 5.0 0.00 0.01 0.01 87 1018.2
20210613012004 62 334 2.0 5.0 0.01 0.01 0.01 86 1018.3
20210613011004 62 322 2.0 5.0 0.01 0.01 0.01 86 1018.2
20210613010004 62 333 1.0 4.0 0.01 0.01 0.01 87 1018.3
20210613005004 62 327 2.0 3.0 0.01 0.01 0.01 86 1018.2
20210613004004 63 0 0.0 6.0 0.01 0.01 0.01 85 1017.9
20210613003004 63 347 2.0 4.0 0.01 0.01 0.01 84 1018.1
20210613002004 64 335 2.0 7.0 0.00 0.00 0.00 82 1018.4
20210613001003 67 7 2.0 5.0 0.00 0.00 0.00 74 1018.2
20210613000003 67 356 2.0 4.0 0.00 0.00 0.00 66 1017.5
20210612235003 67 352 2.0 6.0 0.00 0.00 0.00 64 1017.4
20210612234003 67 16 2.0 7.0 0.00 0.00 0.00 64 1017.5
20210612233003 67 0 0.0 2.0 0.00 0.00 0.00 66 1017.5
20210612232004 67 0 0.0 3.0 0.00 0.00 0.00 65 1017.4
20210612231004 68 335 1.0 4.0 0.00 0.00 0.00 64 1017.4
20210612230004 68 336 1.0 2.0 0.00 0.00 0.00 66 1017.5
20210612225004 68 0 0.0 2.0 0.00 0.00 0.00 65 1017.5
20210612224003 68 0 0.0 2.0 0.00 0.00 0.00 63 1017.2
20210612223003 68 0 0.0 3.0 0.00 0.00 0.00 64 1017.2
20210612222003 68 190 1.0 4.0 0.00 0.00 0.00 63 1017.2
20210612221003 69 0 0.0 4.0 0.00 0.00 0.00 62 1017.4
20210612220004 68 303 2.0 5.0 0.00 0.00 0.00 63 1017.4
20210612215004 68 320 1.0 4.0 0.00 0.00 0.00 66 1017.5
20210612214004 68 311 1.0 3.0 0.00 0.00 0.00 68 1017.6
20210612213004 68 0 0.0 3.0 0.00 0.00 0.00 70 1017.3
20210612212004 68 0 0.0 5.0 0.00 0.00 0.00 71 1017.1
20210612211004 68 280 2.0 5.0 0.00 0.00 0.00 72 1017.2
20210612210004 67 348 1.0 4.0 0.00 0.00 0.00 77 1017.5
20210612205004 67 0 0.0 5.0 0.00 0.00 0.00 81 1017.6
20210612204004 67 346 1.0 3.0 0.00 0.00 0.00 82 1017.3
20210612203004 67 306 1.0 2.0 0.00 0.00 0.00 80 1017.2
20210612202004 67 0 0.0 2.0 0.00 0.00 0.00 80 1016.8
20210612201004 67 0 0.0 3.0 0.00 0.00 0.00 78 1016.9
20210612200004 67 0 0.0 2.0 0.00 0.00 0.00 79 1016.4
20210612195003 67 0 0.0 2.0 0.00 0.00 0.00 80 1016.8
20210612194004 67 0 0.0 2.0 0.00 0.00 0.00 81 1016.9
20210612193004 68 0 0.0 2.0 0.00 0.00 0.00 78 1016.8
20210612192004 68 270 1.0 2.0 0.00 0.00 0.00 78 1016.7
20210612191003 68 0 0.0 3.0 0.00 0.00 0.00 77 1016.7
20210612190004 68 0 0.0 2.0 0.00 0.00 0.00 77 1016.6
20210612185004 69 0 0.0 1.0 0.00 0.00 0.00 77 1016.6
20210612184004 69 0 0.0 2.0 0.00 0.00 0.00 75 1016.7
20210612183004 70 0 0.0 2.0 0.00 0.00 0.00 74 1016.7
20210612182004 70 0 0.0 0.0 0.00 0.00 0.00 72 1016.7
20210612181004 70 0 0.0 1.0 0.00 0.00 0.00 72 1016.8
20210612180004 70 0 0.0 3.0 0.00 0.00 0.00 73 1016.8
20210612175004 71 200 2.0 3.0 0.00 0.00 0.00 72 1016.9
20210612174004 71 0 0.0 2.0 0.00 0.00 0.00 71 1016.9
20210612173004 71 0 0.0 3.0 0.00 0.00 0.00 72 1017.2
20210612172003 71 177 2.0 5.0 0.00 0.00 0.00 72 1017.1
20210612171003 71 169 2.0 4.0 0.00 0.00 0.00 69 1016.8
20210612170003 72 229 1.0 4.0 0.00 0.00 0.00 69 1016.8
20210612165003 73 0 0.0 7.0 0.00 0.00 0.00 62 1016.8
20210612164003 72 0 0.0 3.0 0.00 0.00 0.00 69 1016.9
20210612163003 71 0 0.0 3.0 0.00 0.00 0.00 70 1016.8
20210612162003 72 0 0.0 0.0 0.00 0.00 0.00 71 1017.2
20210612161003 73 0 0.0 0.0 0.00 0.00 0.00 68 1017.1
20210612160003 73 0 0.0 2.0 0.00 0.00 0.00 66 1017.0
20210612155003 74 0 0.0 2.0 0.00 0.00 0.00 63 1017.2
20210612154004 75 0 0.0 2.0 0.00 0.00 0.00 64 1016.9
20210612153003 75 0 0.0 3.0 0.00 0.00 0.00 62 1016.9
20210612152004 78 0 0.0 2.0 0.00 0.00 0.00 59 1017.1
20210612151004 78 0 0.0 4.0 0.00 0.00 0.00 57 1016.8
20210612150004 80 0 0.0 5.0 0.00 0.00 0.00 51 1017.1
20210612145003 78 0 0.0 2.0 0.00 0.00 0.00 58 1017.2
20210612144003 78 0 0.0 2.0 0.00 0.01 0.00 61 1017.0
20210612143004 81 285 1.0 4.0 0.00 0.01 0.00 54 1017.1
20210612142004 80 321 1.0 4.0 0.00 0.01 0.00 50 1017.1
20210612141004 79 360 2.0 4.0 0.00 0.01 0.00 50 1017.1
20210612140003 80 323 1.0 4.0 0.00 0.01 0.00 51 1017.2
20210612135003 78 350 1.0 3.0 0.00 0.01 0.00 56 1017.7
20210612134003 77 0 0.0 3.0 0.00 0.01 0.00 53 1017.5
20210612133004 79 341 1.0 4.0 0.00 0.01 0.00 53 1017.5
20210612132004 79 340 2.0 4.0 0.00 0.01 0.00 52 1017.7
20210612131004 80 347 1.0 5.0 0.00 0.02 0.00 53 1017.6
20210612130004 78 1 1.0 4.0 0.00 0.02 0.00 50 1017.6
20210612125004 77 351 2.0 3.0 0.00 0.02 0.00 55 1017.8
20210612124003 77 355 1.0 7.0 0.00 0.02 0.00 56 1018.0
20210612123003 78 341 3.0 7.0 0.00 0.02 0.00 55 1018.1
20210612122004 78 349 1.0 6.0 0.00 0.02 0.00 54 1018.1
20210612121004 79 317 1.0 4.0 0.00 0.34 0.00 56 1018.1
20210612120004 78 324 1.0 6.0 0.00 0.48 0.00 58 1018.1
20210612115003 76 346 2.0 7.0 0.00 0.48 0.00 61 1018.3
20210612114003 76 331 2.0 6.0 0.00 0.48 0.00 55 1018.2
20210612113004 74 281 2.0 6.0 0.00 0.48 0.00 60 1018.4
20210612112004 72 0 0.0 11.0 0.00 0.48 0.00 61 1018.7
20210612111004 72 337 2.0 8.0 0.00 0.48 0.00 62 1018.5
20210612110004 72 332 2.0 6.0 0.00 0.48 0.00 62 1018.7
20210612105004 73 334 2.0 8.0 0.00 0.48 0.00 60 1018.9
20210612104004 72 332 1.0 6.0 0.00 0.48 0.00 62 1018.8
20210612103004 73 346 2.0 4.0 0.00 0.48 0.00 60 1018.9
20210612102004 73 0 0.0 4.0 0.00 0.48 0.00 61 1019.0
20210612101004 73 4 2.0 4.0 0.00 0.48 0.00 60 1019.1
20210612100004 73 340 2.0 6.0 0.00 0.48 0.00 64 1019.1
20210612095004 74 353 2.0 5.0 0.00 0.48 0.00 61 1019.0
20210612094004 74 358 2.0 5.0 0.00 0.48 0.00 57 1019.0
20210612093004 74 0 0.0 4.0 0.00 0.48 0.00 60 1018.9
20210612092004 72 338 1.0 4.0 0.00 0.48 0.00 65 1018.9
20210612091003 72 333 1.0 5.0 0.00 0.48 0.00 61 1019.1
20210612090003 72 0 0.0 2.0 0.00 0.48 0.00 62 1019.2
20210612085003 73 0 0.0 2.0 0.00 0.48 0.00 65 1019.3
20210612084004 74 0 0.0 3.0 0.00 0.48 0.00 57 1019.2